To NAV CANADA Home Page Login to a new session Search on AWWS site Feedback and Comments Disclaimer Vers la page française équivalente Tips FAQ What's new on the site To the Forecasts and Observations / NOTAM section To "File a Flight Plan" website Publications and other links Update of the User's profile FIC Telephone Numbers My Weather Data Folder Route Weather Data Regional Weather Data Local Weather Data To the Forecasts and Observations / NOTAM section
Request Generated 02/11/2016 at 02:09:03 UTC . Weather information available at that time is displayed.

METAR/TAF

PAULATUK/PAULATUK (NORA ALIQATCHIALUK RUBEN)/NT    

LWIS CYPC 110200Z AUTO 25004KT M33/M37 A3067=
LWIS CYPC 110100Z AUTO 29002KT M32/M36 A3067=
METAR CYPC 110000Z 17003KT 15SM FEW210 M32/M36 A3069 RMK CI1
-31.2/-34/4/0/AFT18Z/ 31 MEDIUM PACK LAST OBS/NXT/111400Z SLP395
DENSITY ALT MISG=

*** REMARK        : Forecast period has ended; this was the last TAF issued
*** REMARQUE : La période de prévision est échue; ceci était le dernier TAF qui a été émis
TAF CYPC 101838Z 1019/1024 VRB03KT P6SM SKC
RMK NXT FCST WILL BE ISSUED AT 111545Z=
Your time UTC time
Weather data provided by Environment Canada and NAV CANADA